Regional Weather Roundup
Issued by NWS Cleveland, OH

Home | Current Version | Previous Version | Graphics & Text | Print | Product List | Glossary On
Versions: 1 2 3 4 5 6 7 8 9 10 11 12 13 14 15 16 17 18 19 20 21 22 23 24 25 26 27 28 29 30 31 32 33 34 35 36 37 38 39 40 41 42 43 44 45 46 47 48 49 50
000
ASUS41 KCLE 210310
RWRCLE
OHIO REGIONAL WEATHER ROUNDUP
NATIONAL WEATHER SERVICE WILMINGTON, OH
1000 PM EST MON NOV 20 2017

NOTE: "FAIR" INDICATES FEW OR NO CLOUDS BELOW 12,000 FEET WITH NO
SIGNIFICANT WEATHER AND/OR OBSTRUCTIONS TO VISIBILITY.

OHZ001>008-015>018-024>027-034-035-043-044-210400-
   NORTHWEST OHIO

CITY           SKY/WX    TMP DP  RH WIND       PRES   REMARKS
DEFIANCE       FAIR      39  26  59 S14G21    29.88S
FINDLAY        FAIR      40  26  57 S21G31    29.90F
TOLEDO EXPRESS FAIR      42  27  55 S15       29.87F
TOLEDO EXEC    FAIR      40  27  59 S15       29.89F
LIMA           FAIR      39  26  59 S18       29.91F
$$

OHZ009>014-019>023-028>033-038-089-210400-
   NORTHEAST OHIO

CITY           SKY/WX    TMP DP  RH WIND       PRES   REMARKS
CLE-HOPKINS    FAIR      41  24  51 S18G25    29.96F
CLE-LAKEFRONT  FAIR      43  22  43 S22G31    29.93F
CUY CO. ARPT   PTCLDY    43  23  45 S16G28    29.94F
LORAIN-ELYRIA  FAIR      40  21  46 SW17G26   29.93F
ASHTABULA      FAIR      38  24  57 S17G24    29.95F
AKRON-CANTON   FAIR      39  22  50 S16       29.98F
WOOSTER        FAIR      37  23  56 S12G22    29.98F
MANSFIELD      FAIR      38  24  57 S20G28    29.96F
YOUNGSTOWN     FAIR      38  22  52 S7        29.99F
$$

OHZ042-051>053-060>062-070>072-077>081-210400-
  SOUTHWEST OHIO

CITY           SKY/WX    TMP DP  RH WIND       PRES   REMARKS
CINC-COVINGTON FAIR      39  27  62 S10       30.01F
CINC-LUNKEN    FAIR      34  28  79 SW6       30.04F WCI  29
HAMILTON       FAIR      37  27  67 CALM      30.03S
DAYTON         FAIR      39  27  62 S13       29.98F
WRIGHT-PAT AFB PTCLDY    38  24  56 S9        29.99F
DAYTON GENERAL FAIR      35  26  69 S9        30.00F WCI  28
WILMINGTON     FAIR      36  27  69 S8        30.01S
$$

OHZ036-037-039>041-045>050-054>059-063>069-073>076-082>088-210400-
  CENTRAL AND SOUTHEAST OHIO

CITY           SKY/WX    TMP DP  RH WIND       PRES   REMARKS
COLUMBUS       FAIR      37  25  61 CALM      30.02F
OSU AIRPORT    FAIR      36  25  64 S7        30.01F
BOLTON FIELD   FAIR      33  25  70 CALM      30.02F
RICKENBACK AFB FAIR      36  25  64 S8        30.01F
NEWARK         FAIR      38  22  52 S5        30.02F
MARION         FAIR      39  24  55 S16G24    29.98F
LANCASTER      FAIR      38  24  57 S8        30.02F
ZANESVILLE     FAIR      35  21  56 S6        30.04F
NEW PHILLY     FAIR      39  22  50 S7        30.03F
$$



USA.gov is the U.S. government's official web portal to all federal, state and local government web resources and services.